Kiana, AK

5:48 AM AKDT on August 19, 2017 (GMT -0800)
Baker Memorial

Weather History for PAIK - October, 2012

Change the Weather History Date:

Tuesday, October 2, 2012

  Actual Average (PASK) Record (PASK)
Temperature  
Mean Temperature 38 °F -  
Max Temperature 39 °F 35 °F 48 °F (2003)
Min Temperature 33 °F 27 °F 17 °F (1996)
Degree Days  
Heating Degree Days 28    
Moisture  
Dew Point 36 °F    
Average Humidity 95    
Maximum Humidity 100    
Minimum Humidity 87    
Precipitation  
Precipitation 0.00 in - - ()
Sea Level Pressure  
Sea Level Pressure 29.95 in    
Wind  
Wind Speed 12 mph (ESE)    
Max Wind Speed 16 mph    
Max Gust Speed 24 mph    
Visibility 10 miles    
Events Rain , Snow    
Averages and records for this station are not official NWS values.
T = Trace of Precipitation, MM = Missing Value Source: NWS Daily Summary

Daily Weather History Graph

Daily Weather History Graph

Search for Another Location

Airport or City:

Trip Planner

Search our weather history database for the weather conditions in past years. The results will help you decide how hot, cold, wet, or windy it might be!

Date:

Astronomy

Oct. 02, 2012 Rise Set
Actual Time 8:59 AM AKDT 8:00 PM AKDT
Civil Twilight 8:06 AM AKDT 8:53 PM AKDT
Nautical Twilight 7:03 AM AKDT 9:55 PM AKDT
Astronomical Twilight 5:53 AM AKDT 11:04 PM AKDT
Moon 7:34 PM AKDT (10/2) 1:19 PM AKDT (10/2)
Length of Visible Light 12h 47m
Length of Day
11h 01m
Waning Gibbous, 93% of the Moon is Illuminated
Oct 2
Waning Gibbous
Oct 7
Last Quarter
Oct 15
New
Oct 21
First Quarter
Oct 29
Full

Hourly Weather History & Observations

Time (AKDT) Temp. Windchill Dew Point Humidity Pressure Visibility Wind Dir Wind Speed Gust Speed Precip Events Conditions
12:01 AM 33.1 °F 23.0 °F 32.0 °F 96% 30.05 in 8.0 mi ESE 15.0 mph 21.9 mph 0.00 in Snow Light Snow
12:26 AM 33.8 °F 25.8 °F 33.8 °F 100% 29.92 in 9.0 mi ESE 10.4 mph 21.9 mph 0.00 in Snow Light Snow
12:36 AM 33.8 °F 23.5 °F 33.8 °F 100% 29.92 in 9.0 mi ESE 16.1 mph 21.9 mph 0.00 in Snow Light Snow
12:52 AM 33.8 °F 23.5 °F 33.8 °F 100% 29.92 in 9.0 mi East 16.1 mph 23.0 mph 0.00 in Snow Light Snow
1:01 AM 33.1 °F 22.6 °F 33.1 °F 100% 30.05 in 9.0 mi ESE 16.1 mph 23.0 mph 0.00 in Snow Light Snow
1:46 AM 33.8 °F 23.9 °F 33.8 °F 100% 29.92 in 9.0 mi East 15.0 mph 20.7 mph 0.00 in Snow Light Snow
2:01 AM 34.0 °F 24.6 °F 33.1 °F 96% 30.05 in 10.0 mi ESE 13.8 mph 20.7 mph 0.00 in Rain Light Rain
3:01 AM 34.0 °F 24.2 °F 33.1 °F 96% 30.04 in 10.0 mi East 15.0 mph 23.0 mph 0.00 in Rain Light Rain
3:20 AM 33.8 °F 23.5 °F 33.8 °F 100% 29.91 in 10.0 mi ESE 16.1 mph 24.2 mph 0.00 in Rain Light Rain
4:01 AM 35.1 °F 25.5 °F 33.1 °F 92% 30.04 in 10.0 mi ESE 15.0 mph 23.0 mph 0.00 in Rain Light Rain
5:01 AM 35.1 °F 25.5 °F 34.0 °F 96% 30.03 in 10.0 mi East 15.0 mph 21.9 mph 0.00 in Rain Light Rain
5:56 AM 35.6 °F 26.2 °F 33.8 °F 93% 29.90 in 10.0 mi ESE 15.0 mph - 0.00 in Rain Light Rain
6:01 AM 35.1 °F 25.2 °F 34.0 °F 96% 30.02 in 10.0 mi East 16.1 mph - 0.00 in Rain Light Rain
7:01 AM 35.1 °F 26.4 °F 34.0 °F 96% 30.01 in 10.0 mi East 12.7 mph - 0.00 in Rain Light Rain
8:01 AM 36.0 °F 28.0 °F 35.1 °F 97% 30.01 in 10.0 mi ESE 11.5 mph - 0.00 in Rain Light Rain
9:01 AM 36.0 °F 28.0 °F 35.1 °F 97% 30.01 in 10.0 mi East 11.5 mph 19.6 mph 0.00 in Rain Light Rain
10:01 AM 37.0 °F 29.8 °F 35.1 °F 93% 30.00 in 10.0 mi East 10.4 mph - 0.00 in Rain Light Rain
11:01 AM 37.0 °F 28.9 °F 36.0 °F 96% 30.00 in 10.0 mi East 12.7 mph - 0.00 in Rain Light Rain
11:13 AM 37.4 °F 30.3 °F 35.6 °F 93% 29.88 in 10.0 mi East 10.4 mph - 0.00 in Rain Light Rain
12:01 PM 37.9 °F 30.9 °F 36.0 °F 93% 30.00 in 10.0 mi East 10.4 mph - 0.00 in Rain Light Rain
1:01 PM 37.9 °F 30.5 °F 37.0 °F 97% 30.00 in 10.0 mi ESE 11.5 mph 18.4 mph 0.00 in Rain Light Rain
1:19 PM 37.4 °F 30.3 °F 37.4 °F 100% 29.87 in 10.0 mi ESE 10.4 mph - 0.00 in Rain Light Rain
2:01 PM 39.0 °F 33.4 °F 37.9 °F 96% 30.00 in 10.0 mi ESE 8.1 mph - 0.00 in Rain Light Rain
3:01 PM 39.9 °F 33.9 °F 37.9 °F 93% 29.99 in 10.0 mi ESE 9.2 mph - 0.00 in Rain Light Rain
4:01 PM 39.9 °F 33.9 °F 39.0 °F 97% 29.98 in 10.0 mi ESE 9.2 mph - 0.00 in Rain Light Rain
4:27 PM 41.0 °F 36.4 °F 39.2 °F 93% 29.85 in 10.0 mi East 6.9 mph - 0.00 in Rain Light Rain
5:01 PM 39.9 °F 35.8 °F 39.0 °F 97% 29.98 in 10.0 mi East 5.8 mph - 0.00 in Rain Light Rain
5:24 PM 41.0 °F 35.8 °F 39.2 °F 93% 29.85 in 10.0 mi ESE 8.1 mph - 0.00 in Rain Light Rain
5:33 PM 41.0 °F 35.8 °F 39.2 °F 93% 29.85 in 10.0 mi SE 8.1 mph - 0.00 in Rain Light Rain
6:01 PM 41.0 °F 35.8 °F 39.0 °F 93% 29.97 in 10.0 mi ESE 8.1 mph - 0.00 in Rain Light Rain
6:53 PM 41.0 °F 38.0 °F 39.2 °F 93% 29.85 in 10.0 mi East 4.6 mph - 0.00 in Rain Light Rain
7:01 PM 41.0 °F 38.0 °F 39.9 °F 96% 29.97 in 10.0 mi East 4.6 mph - 0.00 in Rain Light Rain
7:13 PM 41.0 °F 37.1 °F 39.2 °F 93% 29.84 in 10.0 mi East 5.8 mph - 0.00 in Rain Light Rain
7:37 PM 41.0 °F 37.1 °F 39.2 °F 93% 29.84 in 10.0 mi East 5.8 mph - 0.00 in Rain Light Rain
8:01 PM 41.0 °F 36.4 °F 39.9 °F 96% 29.97 in 10.0 mi ESE 6.9 mph - 0.00 in Rain Light Rain
9:01 PM 42.1 °F 35.7 °F 39.0 °F 89% 29.97 in 10.0 mi SE 11.5 mph 19.6 mph 0.00 in Rain Light Rain
9:58 PM 41.0 °F 37.1 °F 39.2 °F 93% 29.85 in 10.0 mi ESE 5.8 mph - 0.00 in Rain Light Rain
10:01 PM 41.0 °F 37.1 °F 39.0 °F 93% 29.98 in 10.0 mi ESE 5.8 mph - 0.00 in Rain Light Rain
10:23 PM 42.8 °F 38.0 °F 39.2 °F 87% 29.85 in 10.0 mi SE 8.1 mph - 0.00 in Rain Light Rain
11:01 PM 41.0 °F 35.8 °F 39.0 °F 93% 29.98 in 10.0 mi SE 8.1 mph - 0.00 in Rain Light Rain